Wetbulb
56.48 57.05 56.60 57.05 56.98 57.23 57.28 57.69 57.73 57.75 58.30 58.40 58.12 57.73 57.53 57.60 57.56 57.75 58.11 58.34 58.60 58.89 59.09 58.98 59.13 59.93 53.36 46.25 45.33 55.63 58.50 57.73 56.75 54.97 51.30 48.56 45.20 43.10 39.10 39.87 42.02 40.04 41.68 43.82 44.64 44.62 44.39
56.52 56.60 56.39 56.67 56.65 56.97 57.23 57.21 57.30 57.43 58.16 58.29 57.95 57.33 57.42 57.46 57.60 57.54 57.71 57.94 58.28 58.34 58.48 58.34 58.92 59.08 49.49 39.58 53.04 55.76 54.56 54.74 54.98 52.94 50.21 49.01 46.50 46.58 42.59 41.48 40.13 42.26 42.62 42.55 43.55 43.45 43.87
56.15 56.28 56.25 56.31 56.74 56.49 56.95 57.42 57.03 57.27 58.00 57.99 57.82 57.27 57.11 57.28 57.52 57.61 57.62 57.75 57.80 57.71 57.69 57.94 58.76 54.93 47.32 46.13 52.73 53.72 53.94 52.86 53.88 52.94 49.22 50.45 49.58 45.89 44.00 41.15 44.63 43.39 38.92 40.35 41.17 42.66 41.93
55.72 56.01 55.90 56.39 55.98 56.62 56.72 56.79 56.60 57.28 57.84 57.81 57.41 57.09 56.93 57.09 57.27 57.40 57.36 57.18 57.17 57.19 57.25 57.73 57.87 50.34 43.72 53.72 51.43 52.36 52.95 51.71 53.34 54.05 52.25 52.26 50.70 47.26 44.81 44.90 42.52 38.61 37.02 31.92 39.61 42.25 43.12
55.64 55.80 55.70 55.79 56.32 56.09 56.84 56.79 56.45 56.89 57.52 57.48 57.14 56.80 56.80 57.03 57.12 56.98 56.94 57.08 57.15 57.11 57.29 57.76 50.13 47.21 41.96 55.30 49.45 51.90 51.45 49.47 50.92 51.42 51.80 53.58 49.44 44.01 43.44 37.26 32.31 34.10 28.35 31.24 35.29 42.29 41.59
55.37 55.56 55.22 55.46 55.73 56.17 56.52 56.59 56.68 56.90 57.01 57.02 56.78 56.65 56.36 56.65 56.73 57.00 56.90 56.50 55.67 54.79 54.49 53.75 51.57 40.92 45.23 44.81 48.72 50.05 49.82 50.87 48.54 48.27 47.87 47.02 44.43 39.17 37.18 33.26 24.87 28.65 28.99 32.04 31.85 37.61 40.44
55.12 55.28 55.28 55.31 55.61 56.08 56.33 56.36 56.37 56.40 56.37 56.30 56.21 56.61 56.68 56.54 56.50 56.74 52.21 47.90 42.21 43.33 45.09 42.00 42.90 43.02 44.84 48.56 50.18 47.95 50.38 48.48 47.79 44.20 37.73 42.89 36.91 32.66 35.01 36.36 36.07 34.06 31.72 31.75 35.95 39.84 38.26
55.31 55.42 55.77 55.53 55.57 56.01 56.09 56.08 56.09 56.00 55.84 55.72 56.09 56.07 56.42 56.13 56.19 56.41 50.37 44.62 43.43 43.83 38.45 44.68 45.37 45.37 47.11 47.53 43.13 46.45 49.80 42.25 41.01 35.41 38.21 34.63 32.43 37.86 39.33 38.67 36.25 34.32 31.74 31.25 35.36 38.91 38.28
55.51 55.59 55.82 55.99 56.13 56.14 56.13 56.09 56.05 55.91 55.68 55.45 55.74 55.64 55.81 56.14 56.00 50.52 46.09 45.66 50.18 48.54 38.04 43.02 45.08 44.46 44.87 46.08 42.06 43.60 46.70 42.75 38.39 35.57 35.91 32.43 35.82 39.58 38.06 36.18 33.78 31.69 30.84 30.71 32.18 35.81 36.30
55.70 56.11 56.23 56.25 56.38 56.32 56.23 56.21 56.15 56.08 56.09 55.90 55.56 55.44 55.48 55.54 49.79 48.14 45.55 49.55 49.81 48.53 33.18 38.56 40.33 43.70 45.91 45.66 40.52 47.83 47.57 42.36 38.55 35.85 35.89 33.97 38.54 38.15 35.74 34.79 33.87 29.33 34.54 35.42 33.95 30.63 24.14
56.62 56.81 56.97 56.95 56.95 56.97 56.86 56.64 56.52 56.48 56.35 55.73 55.40 55.21 55.29 55.23 46.82 46.32 47.94 49.60 48.22 45.72 20.68 38.56 40.15 47.66 45.43 41.08 41.88 42.39 46.58 42.41 36.37 36.48 35.32 33.14 34.61 34.68 34.51 35.19 35.96 32.84 36.28 34.25 33.71 30.14 27.19
57.65 57.78 57.73 57.66 57.74 57.91 57.52 57.18 57.08 57.01 56.49 55.84 55.25 55.00 54.86 49.66 47.87 47.83 49.65 49.02 46.60 32.65 22.44 35.59 40.67 39.32 39.17 40.64 41.43 42.60 42.19 43.17 42.08 36.92 36.32 35.55 39.18 37.24 36.50 38.29 36.80 37.80 34.15 32.88 31.95 29.35 21.30
54.79 55.11 55.32 55.78 56.06 55.77 56.70 57.72 57.40 57.17 56.69 55.97 55.42 54.79 53.39 51.04 44.90 49.06 49.29 46.17 33.70 24.64 36.77 34.96 36.12 38.12 36.33 36.07 38.15 38.67 37.17 34.77 32.24 26.03 26.89 32.28 35.31 38.02 38.47 34.68 35.74 34.45 29.57 19.86 19.30 20.10 20.62
52.83 53.03 52.94 53.04 53.45 53.78 54.23 54.93 56.34 57.37 56.69 55.79 55.19 53.79 52.21 49.80 49.36 49.17 46.93 37.89 26.18 33.37 35.49 38.21 36.61 36.17 33.70 35.38 34.89 36.10 33.33 31.56 34.19 31.73 26.05 22.98 25.16 33.87 37.50 34.12 31.26 30.81 29.36 20.21 18.35 17.09 19.68
52.09 52.08 52.05 51.77 51.51 51.87 52.35 53.13 54.05 54.99 55.41 55.68 53.69 47.04 48.57 49.07 50.32 48.04 42.13 28.50 29.91 34.14 38.17 36.18 36.37 31.43 32.37 35.15 32.57 31.87 30.57 31.53 33.21 33.31 25.44 25.31 27.49 35.94 36.34 36.32 35.07 31.39 27.16 31.37 25.49 23.15 18.10
50.49 50.62 50.73 50.67 50.40 50.50 51.01 51.31 52.17 52.75 53.73 55.42 46.66 44.03 45.62 49.37 48.68 45.54 37.82 33.80 35.65 40.43 38.78 36.72 31.89 33.72 29.40 31.87 30.44 29.56 29.65 33.68 34.51 35.67 33.19 29.36 25.13 32.88 36.30 36.29 35.97 33.01 34.67 25.94 26.34 19.32 19.52
49.10 49.12 49.29 48.92 49.04 49.16 49.55 50.11 50.36 51.03 52.99 54.14 45.62 39.26 44.83 49.42 46.85 40.67 30.82 32.82 39.46 40.17 39.33 36.25 33.22 32.49 32.94 31.46 31.75 29.81 30.00 33.51 36.16 34.93 34.20 31.96 28.82 29.73 32.74 30.99 30.24 30.73 29.70 29.79 28.65 25.52 19.60
47.23 47.33 48.30 48.09 47.95 48.03 48.41 48.50 49.01 49.57 51.58 48.85 43.08 33.75 45.84 48.12 36.80 36.51 34.37 38.83 41.62 38.42 39.60 38.15 36.21 36.20 33.49 33.25 30.90 30.04 30.87 33.05 37.46 36.40 31.53 33.01 29.20 23.65 29.22 33.60 34.96 32.64 30.19 29.71 23.84 23.84 24.17
47.45 47.08 46.77 47.23 47.32 48.09 48.12 48.10 48.57 49.12 49.71 47.00 38.45 38.98 45.99 45.54 30.37 31.91 37.41 38.86 38.68 37.97 37.81 36.84 36.11 37.08 36.08 33.35 29.99 31.61 32.69 36.71 37.54 35.31 32.10 32.95 26.79 21.05 26.86 30.08 32.94 31.26 32.30 32.02 30.68 28.42 24.31
47.09 47.27 48.39 48.32 47.35 47.06 46.70 46.65 47.16 48.05 49.00 46.57 43.08 32.56 37.90 38.93 36.70 32.14 32.58 34.49 35.61 38.81 38.66 38.48 36.56 37.01 34.27 32.31 33.68 31.04 31.77 35.87 37.22 36.13 41.02 36.89 27.73 26.00 22.89 26.81 28.70 27.25 30.00 31.00 29.69 23.66 24.81
46.75 46.86 47.15 47.56 47.62 46.61 46.28 46.16 46.76 47.47 48.37 46.48 41.84 36.27 36.27 30.55 34.05 34.04 34.12 34.05 33.56 33.99 37.19 37.68 34.64 36.13 34.18 30.30 30.56 30.91 32.77 33.13 35.21 39.53 34.67 32.32 25.80 25.30 27.90 29.62 29.72 29.67 29.58 30.20 27.50 28.60 25.99
46.22 46.36 46.54 46.86 46.90 46.59 45.99 45.40 45.89 46.89 47.73 44.88 41.06 38.60 39.91 39.05 36.93 33.20 34.95 33.22 34.54 35.75 35.79 34.59 33.92 36.19 34.63 31.91 33.83 31.65 32.68 31.65 32.14 32.95 32.27 31.60 26.23 27.84 25.55 29.43 28.65 27.88 30.31 30.26 30.02 30.44 29.66
46.36 45.32 45.43 45.49 46.00 46.12 46.26 45.19 45.27 46.04 45.81 40.27 42.22 42.11 38.82 36.74 35.85 34.26 34.15 33.84 35.02 36.30 37.58 39.28 36.45 34.74 33.23 35.64 38.67 39.37 36.10 35.34 34.23 32.76 30.62 29.90 27.28 25.22 22.99 26.17 27.59 25.92 29.31 29.91 30.35 31.20 30.74
46.26 46.21 45.47 44.95 45.57 46.15 46.14 45.45 44.84 44.79 45.42 42.50 41.80 40.34 35.53 29.38 31.73 32.45 34.57 35.63 35.47 36.78 35.81 38.52 39.16 35.02 37.71 39.47 39.10 36.20 34.01 34.61 33.31 33.62 33.95 29.19 27.44 26.51 22.19 24.95 16.64 29.57 32.26 33.23 31.84 32.66 32.41
46.87 46.43 46.17 45.67 45.03 45.61 45.67 45.36 45.23 44.67 45.12 40.98 42.05 39.53 34.77 28.32 31.27 31.06 31.25 31.18 32.69 34.43 33.65 35.22 38.76 39.95 39.52 35.84 32.38 30.28 28.87 28.64 30.42 31.10 31.05 31.51 28.75 24.88 22.27 21.18 25.87 31.11 30.31 30.25 29.54 29.76 32.79
46.02 46.44 46.38 46.00 45.75 45.02 45.26 45.47 45.32 44.84 44.32 41.27 40.26 41.98 36.67 31.80 28.06 32.77 31.38 32.68 30.24 30.10 31.16 33.48 38.30 39.96 36.97 35.45 32.63 28.18 26.60 26.21 25.01 25.44 30.63 30.39 29.92 27.29 22.97 21.04 20.82 29.04 31.94 34.04 32.98 25.48 32.69
45.69 45.70 45.89 46.08 45.96 45.65 45.53 45.64 45.67 45.07 44.82 40.65 38.94 41.20 36.46 30.03 31.82 32.07 29.04 29.37 32.84 31.35 29.35 32.55 36.19 35.45 36.54 33.09 30.18 28.45 27.52 29.64 25.62 23.91 24.53 25.47 24.91 25.76 25.64 22.51 25.11 32.64 32.68 33.46 24.96 27.74 33.17
45.09 45.21 45.30 45.44 45.67 45.81 45.43 45.42 45.58 45.17 44.99 42.15 38.30 40.25 36.03 31.34 31.00 32.62 32.27 28.99 30.29 30.39 26.50 30.99 31.06 33.07 33.29 31.81 30.51 29.52 27.32 30.72 28.85 30.33 26.10 25.97 24.39 24.92 25.05 21.13 20.41 34.27 30.88 29.54 32.17 32.24 34.36
44.30 44.49 44.80 44.95 45.02 45.38 45.78 45.31 45.38 45.09 45.20 44.23 34.49 39.43 40.95 35.65 32.33 36.13 36.11 36.49 35.79 36.05 32.15 33.05 30.39 30.57 34.01 33.14 31.64 30.16 30.50 27.82 31.00 26.62 28.88 25.96 30.79 26.20 27.44 26.94 33.56 34.48 32.94 34.13 35.17 34.93 34.98
MSLP
1025.86 1025.76 1025.65 1025.45 1025.21 1024.90 1024.63 1024.37 1024.06 1023.75 1023.41 1023.00 1022.61 1022.34 1022.13 1021.89 1021.60 1021.27 1021.04 1020.85 1020.65 1020.48 1020.34 1020.08 1019.74 1019.44 1019.06 1018.98 1018.51 1018.01 1018.09 1018.07 1018.01 1018.04 1018.15 1018.18 1018.24 1018.41 1018.69 1018.70 1018.49 1018.08 1017.46 1016.83 1016.08 1015.62 1015.14
1026.01 1026.00 1025.81 1025.63 1025.29 1025.12 1024.80 1024.56 1024.27 1023.89 1023.48 1023.08 1022.61 1022.32 1022.10 1021.82 1021.56 1021.26 1020.94 1020.69 1020.51 1020.37 1020.25 1020.07 1019.78 1019.56 1019.37 1018.84 1017.65 1017.83 1017.93 1017.98 1018.01 1018.07 1018.23 1018.37 1018.55 1018.57 1018.81 1018.79 1018.90 1018.10 1017.57 1016.68 1015.87 1015.07 1014.82
1026.38 1026.08 1026.08 1025.74 1025.51 1025.25 1024.98 1024.72 1024.46 1024.00 1023.56 1023.09 1022.72 1022.30 1022.01 1021.69 1021.42 1021.12 1020.77 1020.57 1020.29 1020.11 1020.04 1020.00 1019.86 1019.74 1019.40 1018.45 1017.63 1017.73 1017.81 1017.85 1017.73 1017.87 1018.14 1018.19 1018.51 1018.77 1018.79 1018.75 1018.38 1018.05 1017.90 1016.73 1015.46 1014.75 1014.30
1026.61 1026.34 1026.10 1025.95 1025.72 1025.44 1025.11 1024.86 1024.55 1024.08 1023.59 1023.09 1022.68 1022.31 1021.92 1021.58 1021.24 1020.99 1020.76 1020.39 1020.20 1020.05 1019.93 1019.73 1019.71 1019.79 1018.87 1017.73 1017.82 1017.77 1017.63 1017.66 1017.49 1017.67 1017.85 1017.92 1018.22 1018.70 1018.82 1018.58 1018.31 1018.27 1018.12 1017.30 1015.39 1014.77 1014.01
1026.80 1026.57 1026.36 1026.11 1025.86 1025.56 1025.26 1024.99 1024.64 1024.20 1023.69 1023.19 1022.76 1022.27 1021.84 1021.42 1021.06 1020.80 1020.50 1020.27 1019.95 1019.73 1019.73 1019.82 1019.90 1019.74 1018.66 1017.79 1017.86 1017.41 1017.51 1017.65 1017.55 1017.53 1017.49 1017.69 1018.17 1018.67 1018.77 1019.08 1019.13 1018.92 1018.48 1017.46 1015.82 1014.42 1014.21
1026.91 1026.79 1026.58 1026.30 1026.04 1025.72 1025.43 1025.19 1024.72 1024.36 1023.87 1023.36 1022.79 1022.39 1021.80 1021.34 1020.86 1020.54 1020.16 1019.70 1019.79 1019.76 1019.65 1019.63 1019.66 1019.89 1018.51 1017.84 1017.47 1017.36 1017.38 1017.53 1017.71 1017.68 1017.66 1017.96 1018.40 1018.83 1019.05 1019.32 1019.33 1018.72 1018.26 1017.15 1016.13 1014.64 1014.28
1027.12 1026.98 1026.61 1026.39 1026.12 1025.84 1025.58 1025.25 1024.92 1024.37 1023.91 1023.45 1022.88 1022.35 1021.83 1021.24 1020.78 1020.42 1020.06 1019.97 1020.29 1020.24 1019.83 1019.13 1018.91 1018.53 1017.99 1017.57 1017.34 1017.36 1017.36 1017.64 1017.82 1018.02 1018.24 1018.32 1018.83 1018.66 1018.16 1018.17 1017.91 1017.90 1017.66 1016.87 1015.18 1014.33 1014.25
1027.27 1027.08 1026.81 1026.51 1026.28 1026.00 1025.70 1025.34 1024.95 1024.48 1024.00 1023.47 1022.95 1022.34 1021.84 1021.20 1020.76 1020.24 1020.39 1020.88 1021.17 1021.31 1020.18 1018.81 1018.63 1018.30 1017.74 1017.57 1017.58 1017.24 1017.40 1017.91 1018.06 1018.30 1018.28 1018.58 1018.22 1017.04 1017.19 1017.14 1017.26 1017.05 1016.91 1015.94 1014.75 1014.04 1014.12
1027.42 1027.16 1026.81 1026.60 1026.41 1026.06 1025.75 1025.38 1024.98 1024.52 1024.05 1023.59 1023.04 1022.43 1021.82 1021.12 1020.55 1020.39 1020.83 1021.07 1020.97 1021.07 1020.79 1018.86 1018.02 1017.80 1017.65 1017.70 1017.64 1017.30 1017.46 1017.70 1018.04 1018.36 1018.24 1018.47 1016.88 1016.57 1016.64 1016.34 1016.30 1016.08 1016.09 1015.53 1015.16 1014.29 1013.61
1027.40 1027.18 1026.86 1026.56 1026.39 1026.07 1025.75 1025.47 1025.00 1024.54 1024.08 1023.65 1023.16 1022.57 1021.85 1021.10 1020.84 1021.06 1021.13 1021.09 1020.91 1021.02 1020.99 1018.89 1018.01 1017.46 1017.59 1017.59 1017.60 1017.24 1017.30 1017.75 1017.96 1018.16 1017.97 1017.73 1016.57 1016.31 1016.05 1016.09 1015.90 1015.50 1014.88 1015.09 1015.09 1015.31 1015.26
1027.19 1027.00 1026.83 1026.56 1026.29 1025.96 1025.71 1025.38 1025.03 1024.60 1024.11 1023.63 1023.14 1022.66 1022.09 1021.26 1021.60 1021.40 1021.53 1021.12 1021.05 1021.19 1021.10 1018.62 1017.79 1017.33 1017.41 1017.86 1017.49 1017.18 1017.38 1017.79 1017.97 1018.01 1018.53 1017.28 1016.49 1016.15 1015.89 1015.25 1015.48 1015.06 1014.70 1014.93 1015.07 1015.41 1015.67
1027.17 1027.00 1026.88 1026.53 1026.14 1025.77 1025.47 1025.21 1024.91 1024.52 1024.08 1023.61 1023.09 1022.63 1022.25 1021.71 1021.71 1021.56 1021.37 1021.06 1021.32 1021.38 1019.73 1018.19 1017.59 1017.37 1017.66 1017.62 1017.44 1017.14 1017.47 1017.79 1017.79 1018.09 1017.96 1017.43 1016.43 1016.14 1015.54 1014.93 1015.05 1014.97 1014.56 1014.92 1015.40 1015.91 1016.32
1027.62 1027.35 1027.17 1026.78 1026.39 1025.99 1025.61 1025.02 1024.61 1024.33 1023.95 1023.39 1022.88 1022.33 1022.10 1021.86 1021.73 1021.40 1021.28 1021.48 1021.68 1021.24 1018.99 1018.10 1017.50 1017.42 1017.69 1017.77 1017.58 1017.50 1017.51 1017.82 1018.37 1018.58 1018.50 1017.63 1016.42 1015.57 1015.34 1015.27 1014.86 1015.30 1015.65 1016.65 1016.90 1017.07 1016.58
1028.07 1027.81 1027.56 1027.20 1026.73 1026.28 1025.86 1025.32 1024.77 1024.32 1023.76 1023.27 1022.65 1022.04 1021.73 1021.61 1021.53 1021.41 1021.59 1021.87 1021.33 1019.38 1018.30 1017.60 1017.51 1017.53 1017.68 1017.57 1017.57 1017.68 1017.82 1018.14 1018.34 1018.90 1019.51 1019.17 1016.86 1015.90 1015.51 1015.50 1015.75 1016.09 1016.85 1018.08 1018.70 1018.59 1017.43
1028.42 1028.15 1027.86 1027.57 1027.23 1026.72 1026.10 1025.60 1024.98 1024.49 1023.93 1023.23 1022.49 1022.01 1021.84 1021.55 1021.49 1021.68 1022.00 1021.97 1020.09 1018.69 1017.75 1017.63 1017.67 1017.71 1017.68 1017.61 1017.86 1017.91 1017.93 1018.26 1018.24 1018.60 1019.29 1019.27 1017.73 1016.09 1015.57 1015.43 1015.79 1015.86 1016.62 1017.21 1018.07 1018.41 1018.22
1028.68 1028.46 1028.14 1027.81 1027.40 1026.92 1026.29 1025.72 1025.19 1024.65 1024.01 1023.27 1023.15 1022.85 1021.98 1021.49 1021.46 1021.84 1022.23 1021.24 1019.44 1018.12 1017.64 1017.68 1017.88 1017.78 1017.94 1017.82 1018.07 1018.11 1017.91 1017.69 1018.10 1018.36 1018.62 1019.20 1018.87 1016.73 1015.88 1015.63 1015.67 1015.87 1016.41 1016.97 1017.96 1018.49 1018.16
1028.96 1028.66 1028.32 1027.96 1027.58 1027.20 1026.63 1026.08 1025.54 1024.98 1023.91 1022.99 1023.29 1023.04 1021.79 1021.47 1021.57 1022.12 1022.25 1020.73 1019.06 1018.09 1017.74 1018.00 1018.02 1018.04 1018.07 1017.99 1018.10 1018.24 1017.89 1017.64 1017.80 1018.47 1018.75 1019.13 1019.48 1017.62 1016.73 1016.18 1015.92 1016.09 1016.29 1016.91 1017.58 1018.41 1018.46
1028.92 1028.66 1028.47 1028.09 1027.69 1027.27 1026.80 1026.33 1025.82 1025.26 1024.20 1023.21 1023.71 1023.35 1021.97 1021.60 1022.28 1022.05 1021.58 1019.94 1018.73 1018.32 1018.17 1018.11 1018.17 1018.11 1018.04 1017.98 1018.25 1018.41 1017.90 1017.35 1017.54 1018.16 1019.00 1019.28 1019.72 1019.15 1017.26 1016.19 1016.06 1015.99 1016.27 1016.84 1017.83 1018.11 1018.21
1029.18 1028.84 1028.55 1028.14 1027.74 1027.39 1026.88 1026.40 1025.97 1025.61 1025.20 1024.82 1024.32 1023.47 1022.26 1022.03 1022.22 1022.09 1020.82 1019.75 1018.81 1018.50 1018.50 1018.27 1018.28 1018.27 1018.01 1018.31 1018.55 1017.99 1017.59 1017.31 1017.67 1018.20 1018.58 1019.22 1019.92 1019.69 1017.73 1017.08 1016.40 1016.40 1016.36 1016.68 1017.36 1017.81 1017.68
1029.29 1029.04 1028.59 1028.24 1027.90 1027.52 1027.17 1026.78 1026.25 1025.77 1025.24 1025.00 1024.58 1023.89 1022.97 1022.85 1022.71 1021.93 1021.38 1020.15 1019.30 1018.41 1018.11 1018.03 1017.88 1018.08 1018.37 1018.28 1018.28 1018.10 1017.82 1017.64 1017.88 1018.44 1018.82 1019.06 1019.84 1019.85 1019.13 1018.03 1017.68 1017.23 1016.97 1017.03 1017.49 1018.05 1017.02
1029.39 1029.13 1028.87 1028.39 1028.18 1027.58 1027.34 1027.01 1026.33 1025.86 1025.14 1025.08 1024.47 1023.85 1023.29 1023.19 1022.79 1022.41 1021.83 1020.66 1019.81 1019.18 1018.78 1018.46 1018.22 1018.05 1018.06 1018.52 1018.31 1018.04 1017.63 1017.90 1018.35 1018.61 1019.20 1019.75 1020.17 1019.82 1018.96 1018.45 1018.09 1017.35 1016.74 1016.68 1017.12 1016.59 1016.60
1029.36 1029.15 1028.93 1028.57 1028.32 1027.86 1027.50 1027.11 1026.62 1026.07 1024.97 1024.82 1024.83 1024.58 1023.86 1023.56 1022.93 1022.43 1021.99 1021.11 1020.33 1019.78 1019.34 1018.92 1018.80 1018.17 1018.17 1018.19 1017.58 1017.29 1017.29 1017.70 1017.85 1019.06 1019.46 1019.81 1020.05 1020.12 1019.46 1018.30 1017.95 1017.24 1015.92 1015.71 1015.61 1015.48 1015.27
1029.15 1029.09 1028.80 1028.41 1028.40 1027.95 1027.67 1027.33 1026.99 1026.34 1025.74 1025.72 1025.83 1025.46 1025.05 1023.83 1023.04 1022.63 1021.87 1021.21 1020.62 1020.31 1019.34 1018.60 1018.68 1018.59 1018.13 1017.56 1016.91 1016.17 1016.40 1016.68 1016.84 1017.72 1019.06 1019.71 1020.06 1020.42 1019.72 1018.76 1017.80 1016.44 1014.10 1014.49 1014.41 1014.10 1013.96
1029.00 1028.81 1028.52 1028.21 1028.24 1028.01 1027.80 1027.47 1027.18 1026.95 1026.74 1026.63 1026.36 1026.24 1025.62 1024.15 1023.83 1023.14 1022.35 1022.09 1021.41 1020.93 1019.92 1019.33 1018.52 1018.50 1017.83 1017.20 1016.76 1016.25 1016.25 1016.54 1016.89 1017.40 1017.81 1019.13 1019.97 1020.21 1019.74 1018.96 1017.29 1014.09 1013.45 1013.41 1013.68 1013.52 1013.34
1028.64 1028.53 1028.23 1028.09 1028.02 1027.91 1027.77 1027.51 1027.29 1027.01 1026.81 1026.83 1026.55 1026.50 1025.93 1024.71 1024.06 1023.53 1023.25 1022.70 1021.88 1021.22 1020.59 1019.90 1018.85 1017.93 1017.43 1017.46 1017.29 1016.71 1016.50 1016.74 1016.80 1017.05 1017.70 1017.98 1018.91 1019.64 1019.57 1018.60 1015.86 1013.80 1013.17 1013.05 1013.14 1012.82 1012.72
1028.17 1028.13 1027.97 1027.73 1027.63 1027.57 1027.47 1027.27 1027.14 1026.78 1026.60 1026.74 1026.53 1026.37 1026.36 1025.53 1023.79 1024.05 1023.84 1023.36 1022.62 1021.85 1020.88 1019.37 1018.38 1017.81 1017.72 1017.47 1017.14 1016.22 1016.13 1016.28 1016.66 1017.25 1017.61 1018.05 1018.19 1018.69 1019.29 1018.19 1015.57 1012.91 1012.14 1012.13 1012.54 1012.84 1012.26
1027.92 1027.73 1027.50 1027.36 1027.21 1027.10 1026.94 1026.80 1026.63 1026.47 1026.44 1026.51 1026.42 1026.20 1026.32 1025.71 1024.14 1023.71 1023.87 1023.68 1022.98 1022.42 1021.51 1020.58 1019.22 1017.84 1017.07 1016.82 1016.19 1015.73 1015.34 1015.63 1015.64 1016.54 1017.57 1018.07 1018.26 1017.74 1017.77 1017.22 1014.52 1012.37 1012.09 1012.17 1012.57 1012.16 1011.91
1027.65 1027.36 1027.11 1026.84 1026.67 1026.60 1026.36 1026.27 1026.10 1025.92 1025.79 1025.89 1025.86 1025.72 1026.05 1025.16 1023.71 1023.45 1023.07 1023.66 1023.54 1023.38 1022.49 1021.00 1020.61 1017.95 1017.33 1016.68 1016.15 1015.34 1014.62 1014.12 1014.47 1014.36 1014.98 1016.01 1017.04 1016.90 1017.34 1016.66 1013.72 1011.20 1012.05 1011.78 1010.91 1011.30 1011.75
1027.20 1026.84 1026.56 1026.33 1026.12 1025.87 1025.72 1025.43 1025.38 1025.32 1025.10 1025.17 1025.56 1025.08 1025.02 1024.84 1022.91 1022.61 1022.45 1022.80 1021.97 1021.92 1022.22 1021.35 1020.00 1018.85 1018.16 1016.58 1015.34 1014.75 1013.92 1013.32 1012.69 1012.56 1013.35 1013.67 1013.15 1014.11 1014.26 1012.63 1010.78 1010.20 1009.69 1009.71 1010.07 1010.90 1011.76
Wind_Speed
11 11 11 12 12 12 13 14 14 14 14 15 14 12 11 9 8 8 9 9 9 10 10 10 11 12 4 3 4 4 2 4 5 6 5 4 5 2 2 4 6 4 4 7 8 11 10
10 11 11 11 11 13 13 14 15 15 15 16 15 14 12 11 10 10 10 9 9 9 10 10 10 10 1 1 2 6 4 1 2 2 4 4 3 2 3 3 1 4 8 12 9 14 7
10 10 10 11 12 12 13 14 15 15 16 17 17 14 12 12 12 11 10 11 9 8 8 9 8 3 1 7 2 5 5 3 3 3 2 1 2 3 2 4 3 6 8 8 6 5 6
9 10 10 11 11 12 13 14 15 16 17 17 17 15 13 12 12 12 12 11 10 8 7 6 4 1 5 2 1 4 3 4 4 5 3 5 1 2 2 4 7 4 2 6 6 5 6
9 10 10 11 12 12 13 14 15 16 17 18 19 17 15 13 13 13 13 13 11 7 5 5 1 1 7 2 3 5 5 3 4 3 4 2 2 2 4 3 5 3 5 6 9 4 3
9 10 11 11 12 13 14 14 15 16 17 18 19 19 16 14 13 12 13 8 2 5 1 1 2 2 4 2 2 2 2 2 3 5 3 2 1 2 2 3 4 7 6 6 9 5 4
10 10 11 12 12 13 14 15 16 17 17 19 20 18 18 16 15 11 6 3 5 2 1 5 2 3 2 5 1 2 1 0 2 1 2 2 2 7 10 10 8 6 5 11 16 15 6
10 11 12 13 13 14 15 16 16 17 19 19 19 19 19 19 19 12 2 4 2 2 7 4 7 6 2 2 3 2 0 2 1 4 4 4 7 9 7 7 7 8 8 11 11 4 4
9 9 10 11 12 13 14 15 16 17 18 19 18 19 20 19 16 4 4 1 1 2 2 5 3 3 2 2 3 4 5 1 4 3 4 5 9 6 4 8 6 4 6 6 6 9 4
8 9 10 10 11 12 13 14 15 16 16 17 18 20 21 23 4 3 2 4 3 3 5 3 2 3 2 2 3 3 4 1 2 4 5 7 5 3 4 6 1 6 3 6 10 4 3
7 9 10 10 10 11 12 13 15 16 16 16 17 18 20 8 2 2 3 4 2 3 5 3 2 1 1 2 3 2 1 3 4 5 4 9 4 4 5 5 2 11 8 9 4 3 4
15 15 14 14 15 12 10 11 13 14 15 17 18 19 17 2 1 1 4 2 3 8 6 1 1 1 3 1 3 1 1 0 3 3 3 9 5 3 5 6 4 9 6 4 3 3 3
16 16 15 15 15 18 19 16 11 12 14 16 18 21 9 1 2 3 2 3 6 5 2 3 4 1 1 3 4 3 2 4 2 7 6 7 4 3 1 6 4 9 7 6 8 7 5
16 16 16 17 17 17 17 18 19 16 14 16 19 17 2 2 2 2 3 5 2 5 6 2 2 1 3 1 3 2 2 2 1 3 2 3 10 2 1 2 4 4 2 5 4 3 7
14 15 16 17 17 18 18 18 18 18 19 15 14 3 2 2 0 2 5 3 9 7 2 3 1 1 3 2 1 2 3 3 5 5 1 3 7 4 2 1 3 4 3 2 2 1 3
15 16 16 16 17 18 19 19 19 20 20 16 3 4 3 1 2 4 4 7 5 3 4 1 5 5 4 3 1 1 3 4 4 4 3 2 6 3 4 2 2 2 2 3 3 3 5
14 14 16 16 16 17 19 20 21 22 23 16 2 4 2 1 3 5 4 8 5 2 2 5 4 3 6 3 5 3 4 3 4 4 3 3 4 7 3 1 2 3 2 1 2 4 3
12 13 15 14 15 17 17 19 20 22 26 6 2 2 2 2 2 2 3 6 2 3 1 4 2 6 7 6 5 5 7 6 7 7 5 5 4 5 8 4 4 2 2 3 4 4 2
13 14 13 13 14 14 17 18 20 20 18 5 2 4 2 3 4 4 5 5 4 5 5 5 5 6 3 5 3 7 5 1 6 7 8 6 2 5 10 5 2 3 3 2 2 3 6
12 14 16 12 12 16 18 20 20 19 19 5 2 4 4 3 1 2 2 5 5 4 5 5 4 4 3 4 4 4 4 4 6 4 6 4 4 8 8 7 1 7 3 2 2 1 4
12 13 14 13 14 15 17 18 19 19 20 2 2 5 4 3 3 3 2 3 4 4 2 2 2 8 8 6 3 7 6 2 2 5 5 4 6 5 7 11 8 12 15 9 9 10 8
9 10 13 15 13 12 13 18 20 20 21 0 3 4 5 3 4 4 3 3 3 7 4 5 5 6 7 7 10 6 5 5 8 3 7 4 4 4 6 5 4 9 12 11 11 10 12
8 8 10 11 11 11 11 14 17 19 12 3 2 2 2 4 4 4 7 5 5 8 9 11 4 5 4 12 16 17 7 5 6 12 9 8 5 3 6 4 8 9 7 6 5 6 5
10 9 10 9 10 12 11 10 12 14 10 1 2 2 3 8 5 6 10 14 13 13 18 15 17 8 6 6 6 2 5 7 7 8 6 8 6 4 4 3 2 7 3 6 7 6 7
12 12 10 9 8 11 10 9 8 9 11 1 1 2 2 7 7 12 15 14 17 17 18 17 16 13 8 3 5 6 3 3 6 6 8 5 6 4 4 5 7 7 5 7 7 7 8
13 12 13 10 11 9 11 12 9 7 8 1 2 1 1 6 6 5 5 9 12 12 16 20 18 15 4 6 7 18 11 4 5 2 4 4 1 5 3 5 9 7 4 6 5 6 8
14 15 14 14 14 13 12 13 11 8 8 2 3 2 2 5 11 14 7 7 4 6 9 10 10 6 6 9 14 14 15 6 12 8 6 4 2 15 11 6 9 10 6 5 6 8 7
16 16 16 16 15 17 14 12 12 10 10 5 4 4 3 6 11 17 21 12 13 11 13 11 12 6 3 6 6 7 8 13 11 11 11 13 10 6 5 6 12 10 5 11 7 3 7
18 18 18 18 17 17 18 15 14 14 14 10 3 3 4 7 11 17 20 18 24 24 14 10 15 16 6 4 2 3 7 3 14 19 4 8 12 9 14 12 6 11 3 6 7 8 7
Wind_Direction
54 47 40 35 28 25 18 16 11 7 3 1 358 351 340 330 319 315 316 313 309 308 314 323 331 333 359 24 252 186 186 345 326 349 5 2 30 38 0 303 326 229 266 274 274 291 281
48 44 41 32 26 21 17 13 9 6 2 359 359 353 342 332 323 315 310 305 302 305 309 317 328 325 39 332 164 171 185 301 262 351 357 17 348 279 279 275 313 295 291 283 281 278 268
46 44 33 26 26 16 14 10 7 4 1 1 357 355 344 332 324 316 307 300 294 295 301 309 323 322 50 235 179 192 188 216 206 190 300 279 300 13 334 294 279 276 301 314 265 255 256
34 38 29 25 17 15 13 8 4 0 359 360 358 353 344 333 326 320 313 303 295 291 289 289 318 344 249 304 341 269 210 278 242 220 194 242 216 261 231 292 334 342 308 332 273 286 268
30 28 25 21 15 15 9 6 2 360 358 358 357 354 345 337 331 324 318 307 290 279 261 288 7 96 277 336 278 245 199 252 286 263 217 210 141 257 344 1 344 342 268 275 307 231 268
30 24 22 18 13 10 7 1 360 357 357 356 356 352 347 338 332 328 318 292 256 327 192 196 268 31 272 287 251 249 228 226 294 322 26 127 83 334 358 74 297 285 295 273 261 286 224
18 16 15 13 9 8 4 2 358 358 356 353 352 348 346 339 333 334 359 1 20 355 12 212 208 247 269 282 181 234 286 335 309 13 319 224 24 251 257 218 235 264 256 265 277 286 241
13 13 14 13 10 5 3 1 358 357 355 352 346 345 343 340 328 328 104 62 49 234 314 246 251 274 278 127 317 273 56 328 312 285 313 4 241 259 250 263 258 266 263 275 283 254 197
7 11 15 10 5 3 359 357 356 355 353 348 343 341 340 336 324 26 77 85 344 44 264 298 220 231 231 145 255 267 148 179 245 286 255 211 256 314 276 305 319 266 224 263 257 324 278
357 356 358 359 354 353 351 349 350 349 345 341 341 338 339 332 47 326 51 325 20 104 53 267 263 263 155 151 272 232 204 184 296 275 301 240 279 298 296 289 215 305 221 268 304 22 284
333 338 339 337 338 340 341 342 343 342 339 337 337 338 338 352 278 59 302 335 356 56 49 239 226 125 85 225 300 235 83 67 232 255 61 262 284 311 307 235 114 251 305 282 286 182 35
35 27 19 8 6 337 322 327 332 335 334 334 334 333 337 331 15 298 322 4 49 44 262 326 202 256 330 197 265 162 211 39 237 278 200 251 297 266 248 296 210 291 327 22 53 77 35
23 22 17 7 6 6 1 346 323 327 330 331 330 327 322 289 249 318 360 47 33 132 280 217 227 167 127 274 291 194 270 329 350 16 357 322 272 260 246 323 343 14 19 351 359 4 232
21 19 14 8 5 4 356 359 1 342 331 328 329 323 294 226 298 16 57 49 144 238 225 27 155 261 207 183 248 287 291 304 236 88 3 43 331 278 159 193 282 330 100 136 284 307 291
23 19 15 9 7 7 2 359 354 354 343 329 329 333 310 270 298 63 78 75 215 211 196 174 152 254 262 229 203 346 223 219 199 172 151 9 277 311 236 260 126 318 32 185 212 259 24
23 15 13 12 10 6 2 0 358 352 345 339 339 347 274 243 91 72 85 235 247 226 127 102 215 183 241 221 207 190 236 210 191 184 133 180 299 264 299 343 240 212 263 29 11 343 312
19 15 11 7 8 8 6 6 0 353 346 331 25 351 270 72 77 56 187 231 272 262 155 172 225 238 227 242 201 223 245 251 175 177 142 157 133 288 332 195 278 336 337 340 139 146 206
9 7 5 6 4 3 360 1 360 359 348 38 17 305 311 43 91 198 209 208 279 208 72 249 223 224 208 203 212 235 230 216 166 150 175 201 158 272 251 261 270 230 253 126 124 272 235
9 3 1 0 3 7 13 7 4 359 8 310 312 269 335 83 196 236 278 272 242 181 215 197 234 218 170 220 235 204 225 154 158 159 170 181 228 330 336 353 317 264 194 218 110 50 214
8 360 10 12 23 11 6 1 353 352 353 341 281 326 317 40 320 172 302 262 257 226 230 192 201 163 178 220 231 266 248 213 188 192 148 134 179 191 203 223 192 291 243 225 137 226 242
359 2 357 3 5 4 11 3 0 351 343 310 244 247 199 284 303 245 278 285 310 300 225 238 250 221 180 207 222 226 225 187 195 192 158 155 220 189 256 265 263 261 271 257 214 218 227
345 352 347 359 0 8 11 6 3 358 346 242 318 348 352 296 283 258 188 248 248 276 236 241 232 255 203 209 209 244 194 186 202 187 169 177 243 188 286 251 245 276 258 249 243 245 243
316 331 338 347 349 357 360 11 5 7 11 14 348 342 337 279 278 301 261 241 265 331 274 256 250 309 263 232 239 246 214 229 195 163 185 164 166 139 253 340 317 294 222 199 245 206 196
313 294 311 331 331 337 349 354 3 5 22 311 336 277 290 267 265 268 301 303 301 305 289 279 293 260 245 308 286 267 239 239 178 206 161 157 156 162 252 353 219 236 210 200 219 246 223
302 302 295 302 310 318 321 332 333 356 351 4 318 329 285 276 290 276 281 285 294 294 293 294 293 254 270 228 260 274 300 307 228 222 210 184 149 192 201 198 297 297 200 176 174 275 204
311 305 299 288 290 289 301 308 309 313 333 359 269 243 288 308 244 2 312 287 279 281 289 275 274 267 195 243 226 241 238 214 232 233 3 116 79 156 148 216 222 235 173 142 118 282 190
313 308 303 298 291 279 280 287 295 294 289 302 263 229 213 272 265 260 283 293 292 311 296 309 313 317 183 232 240 238 246 195 230 205 177 154 184 209 218 247 278 242 172 152 117 232 166
308 309 306 302 293 289 283 291 288 281 276 263 243 214 192 262 268 256 269 271 285 282 279 285 320 226 261 224 240 230 247 228 227 234 188 180 170 194 176 213 270 179 96 169 201 98 149
304 304 304 304 300 291 284 279 276 275 281 273 239 237 218 247 268 287 266 262 242 233 255 241 242 271 328 299 237 272 231 213 228 242 137 216 198 185 189 209 236 197 171 196 153 151 169